Pine Ridge, SD

3:56 AM MDT on March 30, 2017 (GMT -0600)
Pine Ridge

Weather History for KIEN - February, 2012

Change the Weather History Date:

Thursday, February 2, 2012

  Actual Average Record
Temperature  
Mean Temperature 36 °F 24 °F  
Max Temperature 48 °F 38 °F 52 °F (2005)
Min Temperature 24 °F 11 °F -21 °F (2011)
Degree Days  
Heating Degree Days 29 41  
Month to date heating degree days 60 82  
Since 1 July heating degree days 4049 4359  
Cooling Degree Days 0 0  
Month to date cooling degree days 0 0  
Year to date cooling degree days 0 0  
Moisture  
Dew Point 20 °F    
Average Humidity 53    
Maximum Humidity 75    
Minimum Humidity 31    
Precipitation  
Precipitation 0.00 in 0.02 in 0.06 in (2003)
Month to date precipitation 0.00 0.04  
Year to date precipitation 0.39 0.36  
Sea Level Pressure  
Sea Level Pressure 30.17 in    
Wind  
Wind Speed 4 mph (SE)    
Max Wind Speed 13 mph    
Max Gust Speed 17 mph    
Visibility 10 miles    
Events      
T = Trace of Precipitation, MM = Missing Value Source: NWS Daily Summary

Daily Weather History Graph

Daily Weather History Graph

Search for Another Location

Airport or City:

Trip Planner

Search our weather history database for the weather conditions in past years. The results will help you decide how hot, cold, wet, or windy it might be!

Date:

Astronomy

Feb. 02, 2012 Rise Set
Actual Time 7:04 AM MST 5:03 PM MST
Civil Twilight 6:34 AM MST 5:33 PM MST
Nautical Twilight 6:00 AM MST 6:07 PM MST
Astronomical Twilight 5:27 AM MST 6:40 PM MST
Moon 12:13 PM MST (2/2) 2:51 AM MST (2/2)
Length of Visible Light 10h 59m
Length of Day
9h 58m
Waxing Gibbous, 74% of the Moon is Illuminated
Feb 2
Waxing Gibbous
Feb 7
Full
Feb 14
Last Quarter
Feb 21
New
Feb 29
First Quarter

Hourly Weather History & Observations

Time (MST) Temp. Windchill Dew Point Humidity Pressure Visibility Wind Dir Wind Speed Gust Speed Precip Events Conditions
12:52 AM 34.0 °F 28.8 °F 18.0 °F 52% 30.10 in 10.0 mi South 5.8 mph - N/A   Clear
1:52 AM 34.0 °F 26.6 °F 18.0 °F 52% 30.10 in 10.0 mi SSW 9.2 mph - N/A   Clear
2:52 AM 34.0 °F 27.2 °F 18.0 °F 52% 30.10 in 10.0 mi SW 8.1 mph - N/A   Clear
3:52 AM 34.0 °F 28.8 °F 17.1 °F 50% 30.10 in 10.0 mi SSW 5.8 mph - N/A   Clear
4:52 AM 36.0 °F 28.5 °F 18.0 °F 48% 30.11 in 10.0 mi South 10.4 mph - N/A   Clear
5:52 AM 36.0 °F 29.0 °F 17.1 °F 46% 30.11 in 10.0 mi SSW 9.2 mph - N/A   Partly Cloudy
6:52 AM 34.0 °F 29.8 °F 17.1 °F 50% 30.13 in 10.0 mi SSW 4.6 mph - N/A   Clear
7:52 AM 33.1 °F 30.0 °F 19.0 °F 56% 30.16 in 10.0 mi WNW 3.5 mph - N/A   Clear
8:52 AM 35.1 °F - 19.9 °F 54% 30.17 in 8.0 mi Calm Calm - N/A   Mostly Cloudy
9:52 AM 37.9 °F - 19.9 °F 48% 30.18 in 7.0 mi Calm Calm - N/A   Overcast
10:52 AM 39.9 °F - 19.0 °F 43% 30.17 in 9.0 mi Calm Calm - N/A   Clear
11:52 AM 42.1 °F - 19.9 °F 41% 30.15 in 10.0 mi Calm Calm - N/A   Clear
12:52 PM 46.9 °F - 18.0 °F 32% 30.13 in 10.0 mi Variable 3.5 mph - N/A   Clear
1:52 PM 46.0 °F 42.5 °F 19.0 °F 34% 30.14 in 10.0 mi NE 6.9 mph - N/A   Clear
2:52 PM 43.0 °F 37.7 °F 19.9 °F 40% 30.15 in 10.0 mi NNE 9.2 mph - N/A   Clear
3:52 PM 41.0 °F 38.0 °F 19.9 °F 43% 30.15 in 10.0 mi NNE 4.6 mph - N/A   Scattered Clouds
4:52 PM 37.9 °F 34.4 °F 21.0 °F 51% 30.17 in 10.0 mi ENE 4.6 mph - N/A   Partly Cloudy
5:52 PM 32.0 °F - 21.0 °F 64% 30.21 in 10.0 mi Calm Calm - N/A   Clear
6:52 PM 30.0 °F 25.2 °F 21.0 °F 69% 30.26 in 10.0 mi East 4.6 mph - N/A   Clear
7:52 PM 28.9 °F 23.9 °F 21.0 °F 72% 30.27 in 10.0 mi ENE 4.6 mph - N/A   Clear
8:52 PM 26.1 °F 21.9 °F 19.9 °F 78% 30.29 in 10.0 mi ESE 3.5 mph - N/A   Clear
9:52 PM 33.1 °F - 24.1 °F 70% 30.29 in 10.0 mi Calm Calm - N/A   Clear
10:52 PM 30.0 °F - 23.0 °F 75% 30.30 in 10.0 mi Calm Calm - N/A   Scattered Clouds
11:52 PM 32.0 °F 27.5 °F 24.1 °F 73% 30.30 in 10.0 mi North 4.6 mph - N/A   Scattered Clouds